Location: ?????
(55.6500°N, 37.2500°E)
Time: 23:02:05
(UTC+00:00)

Cosmos 1331 Rocket - Pass Details

Date: 12 August 2025
Orbit: 746 x 772 km, 74.0° (Epoch: 10 December)

Event Time Altitude Azimuth Distance (km) Brightness Sun altitude
Exits shadow 23:50:51 - 271° (W) 2,975 6.7 -14.2°
Reaches altitude 10° 23:53:18 10° 287° (WNW) 2,283 6.3 -14.0°
Maximum altitude 23:56:44 18° 329° (NNW) 1,823 6.2 -13.7°
Drops below altitude 10° 00:00:12 10° 11° (N) 2,300 7.6 -13.4°
Sets 00:03:24 0° 31° (NNE) 3,234 9.2 -13.2°
